116  
ASUS43 KFSD 261110  
RWRFSD  
 
WEATHER ROUNDUP FOR SE SOUTH DAKOTA/SW MINNESOTA/NW IOWA  
NATIONAL WEATHER SERVICE SIOUX FALLS SD  
600 AM CDT WED APR 26 2017  
 
NOTE: "FAIR" INDICATES FEW OR NO CLOUDS BELOW 12,000 FEET WITH NO  
SIGNIFICANT WEATHER AND OR S TO VISIBILITY
.  
 
 
SDZ038>040-050-052>070-261200-  
SOUTHEAST SOUTH DAKOTA  
 
CITY SKY/WX TMP DP RH WIND PRES REMARKS
 
BROOKINGS CLOUDY 32 31 96 N15 29.64R WCI 22  
CHAMBERLAIN CLOUDY 34 31 88 NW16 29.77R WCI 24  
HURON CLOUDY 31 29 92 N15 29.72R WCI 20  
MADISON LGT RAIN 32 32 100 N21G26 29.64S WCI 20  
MITCHELL CLOUDY 33 31 92 NW16 29.73R WCI 23  
SIOUX FALLS DRIZZLE 35 34 96 NW14 29.64R WCI 26  
WINNER CLOUDY 33 29 85 NW18 29.78R WCI 22  
YANKTON CLOUDY 34 28 80 NW17 29.70R WCI 23  

 
 
MNZ071-072-080-081-089-090-097-098-261200-  
SOUTHWEST MINNESOTA  
 
CITY SKY/WX TMP DP RH WIND PRES REMARKS
 
FAIRMONT LGT RAIN 40 39 97 NW24 29.48R  
JACKSON CLOUDY 36 36 100 NW23G31 29.54R  
LUVERNE CLOUDY 34 32 93 N14G23 29.62R WCI 24  
MARSHALL MIX PCPN 34 33 96 N16 29.61R WCI 24  
MONTEVIDEO DRIZZLE 34 34 100 N14G21 29.60S WCI 24  
PIPESTONE MIX PCPN 34 30 86 N14G20 29.61 WCI 24  
REDWOOD FALLS CLOUDY 37 34 89 N13G20 29.55S  
TRACY LGT RAIN 36 35 98 N18 29.59R  
WINDOM CLOUDY 36 36 100 NW20G26 29.54R  
WORTHINGTON CLOUDY 35 34 96 NW23 29.58R WCI 23  

 
 
IAZ001>003-012>014-020>022-031-032-NEZ013-014-SDZ071-261200-  
NORTHWEST IOWA  
 
CITY SKY/WX TMP DP RH WIND PRES REMARKS
 
CHEROKEE CLOUDY 36 36 100 NW17G24 29.58R FOG  
DENISON CLOUDY 37 37 100 NW12G22 29.61R  
ESTHERVILLE CLOUDY 38 38 100 NW23G29 29.51R  
LE MARS CLOUDY 36 36 100 NW18 29.64R FOG  
ORANGE CITY DRIZZLE 36 36 100 NW14G20 29.61R  
SHELDON MIX PCPN 36 34 93 NW17 29.58R  
SIOUX CITY CLOUDY 35 33 92 NW23G33 29.63R WCI 23  
SPENCER CLOUDY 38 37 97 NW18G26 29.55R  
STORM LAKE MIX PCPN 36 36 100 NW24G31 29.55F  

 
 
ABBREVIATIONS USED IN REMARKS  
TC - TEMPERATURE IN CELSIUS  
WCI - WIND CHILL INDEX  
HX - HEAT INDEX  
VSB - VISIBILITY  
 
 
 
CLICK HERE TO GO TO PREVIOUS BULLETINS.

The Nexlab SD Page
The Nexlab IA Page
The Nexlab MN Page
The Nexlab NE Page Main Text Page